Silver City, NM

6:34 AM MST on December 08, 2019 (GMT -0700)
Grant County

Weather History for KSVC - October, 2019

Change the Weather History Date:

Friday, October 18, 2019

  Actual Average (WUND) Record (WUND)
Temperature  
Mean Temperature 56 °F -  
Max Temperature 70 °F - - (-1)
Min Temperature 44 °F - - (-1)
Degree Days  
Heating Degree Days 8    
Growing Degree Days 6 (Base 50)    
Moisture  
Dew Point 40 °F    
Average Humidity 49    
Maximum Humidity 70    
Minimum Humidity 27    
Precipitation  
Precipitation 0.00 in - - ()
Sea Level Pressure  
Sea Level Pressure 29.94 in    
Wind  
Wind Speed 12 mph (WNW)    
Max Wind Speed 31 mph    
Max Gust Speed 36 mph    
Visibility 10 miles    
Events Rain    
Averages and records for this station are not official NWS values.
T = Trace of Precipitation, MM = Missing Value Source: NWS Daily Summary

Daily Weather History Graph

Daily Weather History Graph

Search for Another Location

Airport or City:

Astronomy

Oct. 18, 2019 Rise Set
Actual Time 7:18 AM MDT 6:36 PM MDT
Civil Twilight 6:53 AM MDT 7:01 PM MDT
Nautical Twilight 6:25 AM MDT 7:29 PM MDT
Astronomical Twilight 5:56 AM MDT 7:58 PM MDT
Moon 10:07 PM MDT (10/18) 11:42 AM MDT (10/18)
Length of Visible Light 12h 07m
Length of Day
11h 17m
Waning Gibbous, 78% of the Moon is Illuminated
Oct 18
Waning Gibbous
Oct 21
Last Quarter
Oct 27
New
Nov 4
First Quarter
Nov 12
Full

Hourly Weather History & Observations

Time (MDT) Temp. Windchill Dew Point Humidity Pressure Visibility Wind Dir Wind Speed Gust Speed Precip Events Conditions
12:15 AM 63.9 °F - 44.1 °F 49% 29.93 in 10.0 mi WNW 5.8 mph - N/A   Overcast
12:35 AM 62.6 °F - 45.0 °F 52% 29.92 in 10.0 mi WNW 5.8 mph - N/A   Mostly Cloudy
12:55 AM 63.3 °F - 45.9 °F 53% 29.92 in 10.0 mi West 4.6 mph - N/A   Overcast
1:15 AM 61.0 °F - 45.5 °F 57% 29.93 in 10.0 mi NW 4.6 mph - N/A   Mostly Cloudy
1:35 AM 59.5 °F - 45.9 °F 61% 29.93 in 10.0 mi NNW 6.9 mph - N/A   Clear
1:55 AM 58.3 °F - 46.0 °F 64% 29.93 in 10.0 mi NNW 6.9 mph - N/A   Clear
2:15 AM 57.4 °F - 45.7 °F 65% 29.92 in 10.0 mi NNW 8.1 mph - N/A   Scattered Clouds
2:35 AM 60.4 °F - 46.8 °F 61% 29.92 in 10.0 mi NNW 11.5 mph - N/A   Scattered Clouds
2:55 AM 62.1 °F - 46.4 °F 56% 29.92 in 10.0 mi NW 9.2 mph - N/A   Overcast
3:15 AM 62.6 °F - 45.5 °F 54% 29.92 in 10.0 mi West 8.1 mph - N/A   Overcast
3:35 AM 61.3 °F - 45.5 °F 56% 29.92 in 10.0 mi WNW 5.8 mph - N/A   Overcast
3:55 AM 61.0 °F - 44.8 °F 55% 29.91 in 10.0 mi West 6.9 mph - N/A   Overcast
4:15 AM 60.1 °F - 44.4 °F 56% 29.91 in 10.0 mi West 9.2 mph 16.1 mph N/A   Scattered Clouds
4:35 AM 59.0 °F - 43.7 °F 57% 29.91 in 10.0 mi WSW 9.2 mph - N/A   Scattered Clouds
4:55 AM 57.0 °F - 43.5 °F 61% 29.91 in 10.0 mi West 10.4 mph - N/A   Clear
5:15 AM 55.9 °F - 43.0 °F 62% 29.91 in 10.0 mi WNW 9.2 mph - N/A   Clear
5:35 AM 56.8 °F - 42.8 °F 59% 29.92 in 10.0 mi WNW 9.2 mph - N/A   Clear
5:55 AM 55.8 °F - 42.8 °F 62% 29.92 in 10.0 mi WNW 11.5 mph - N/A   Clear
6:15 AM 55.4 °F - 42.4 °F 62% 29.92 in 10.0 mi WNW 9.2 mph - N/A   Clear
6:35 AM 53.6 °F - 42.1 °F 65% 29.92 in 10.0 mi WNW 5.8 mph - N/A   Clear
6:55 AM 52.3 °F - 42.3 °F 69% 29.92 in 10.0 mi WNW 9.2 mph - N/A   Clear
7:15 AM 53.8 °F - 42.8 °F 66% 29.92 in 10.0 mi NW 9.2 mph - N/A   Clear
7:35 AM 54.3 °F - 43.3 °F 66% 29.94 in 10.0 mi NW 6.9 mph - N/A   Clear
7:55 AM 57.4 °F - 44.6 °F 62% 29.94 in 10.0 mi NW 8.1 mph - N/A   Clear
8:15 AM 59.0 °F - 45.0 °F 60% 29.94 in 10.0 mi NW 9.2 mph 18.4 mph N/A   Clear
8:35 AM 59.9 °F - 45.1 °F 58% 29.94 in 10.0 mi NW 9.2 mph - N/A   Clear
8:55 AM 61.3 °F - 45.7 °F 56% 29.95 in 10.0 mi West 16.1 mph 24.2 mph N/A   Clear
9:15 AM 62.8 °F - 45.5 °F 53% 29.96 in 10.0 mi West 19.6 mph 28.8 mph N/A   Clear
9:35 AM 63.3 °F - 45.3 °F 52% 29.96 in 10.0 mi West 20.7 mph 29.9 mph N/A   Clear
9:55 AM 63.7 °F - 44.1 °F 49% 29.97 in 10.0 mi West 20.7 mph 27.6 mph N/A   Scattered Clouds
10:15 AM 64.6 °F - 43.9 °F 47% 29.97 in 10.0 mi West 19.6 mph 26.5 mph N/A   Scattered Clouds
10:35 AM 66.2 °F - 43.5 °F 44% 29.96 in 10.0 mi West 23.0 mph 26.5 mph N/A   Mostly Cloudy
10:55 AM 67.1 °F - 42.6 °F 41% 29.96 in 10.0 mi WSW 18.4 mph 26.5 mph N/A   Mostly Cloudy
11:15 AM 67.1 °F - 41.0 °F 39% 29.96 in 10.0 mi West 21.9 mph 28.8 mph N/A   Scattered Clouds
11:35 AM 67.1 °F - 40.5 °F 38% 29.96 in 10.0 mi West 19.6 mph 31.1 mph N/A   Mostly Cloudy
11:55 AM 67.8 °F - 41.4 °F 38% 29.95 in 10.0 mi WSW 21.9 mph 26.5 mph N/A   Scattered Clouds
12:15 PM 68.2 °F - 41.7 °F 38% 29.94 in 10.0 mi WSW 16.1 mph 29.9 mph N/A   Scattered Clouds
12:35 PM 68.7 °F - 41.0 °F 36% 29.94 in 10.0 mi WSW 23.0 mph 27.6 mph N/A   Mostly Cloudy
12:55 PM 69.1 °F - 42.6 °F 38% 29.92 in 10.0 mi WSW 17.3 mph 31.1 mph N/A   Scattered Clouds
1:15 PM 58.5 °F - 48.6 °F 70% 29.94 in 10.0 mi NW 31.1 mph 35.7 mph N/A Rain Light Rain
1:35 PM 63.7 °F - 46.6 °F 54% 29.93 in 10.0 mi NW 21.9 mph - N/A   Mostly Cloudy
1:55 PM 64.6 °F - 44.4 °F 48% 29.92 in 10.0 mi WNW 11.5 mph 20.7 mph N/A   Scattered Clouds
2:15 PM 67.8 °F - 43.2 °F 41% 29.92 in 10.0 mi WNW 24.2 mph 28.8 mph N/A   Scattered Clouds
2:35 PM 69.6 °F - 40.6 °F 35% 29.91 in 10.0 mi West 25.3 mph 33.4 mph N/A   Scattered Clouds
2:55 PM 68.5 °F - 41.0 °F 37% 29.90 in 10.0 mi West 24.2 mph 32.2 mph N/A   Scattered Clouds
3:15 PM 67.6 °F - 42.4 °F 40% 29.90 in 10.0 mi West 21.9 mph 26.5 mph N/A   Clear
3:35 PM 68.9 °F - 41.4 °F 37% 29.91 in 10.0 mi West 20.7 mph 35.7 mph N/A   Scattered Clouds
3:55 PM 68.4 °F - 39.7 °F 35% 29.91 in 10.0 mi WNW 25.3 mph 33.4 mph N/A   Scattered Clouds
4:15 PM 69.4 °F - 37.8 °F 31% 29.92 in 10.0 mi WNW 26.5 mph 32.2 mph N/A   Mostly Cloudy
4:35 PM 68.7 °F - 39.0 °F 34% 29.92 in 10.0 mi West 24.2 mph 31.1 mph N/A   Scattered Clouds
4:55 PM 68.2 °F - 36.9 °F 32% 29.93 in 10.0 mi West 26.5 mph 32.2 mph N/A   Scattered Clouds
5:15 PM 68.0 °F - 36.9 °F 32% 29.93 in 10.0 mi West 24.2 mph 33.4 mph N/A   Mostly Cloudy
5:35 PM 66.6 °F - 34.5 °F 31% 29.93 in 10.0 mi West 26.5 mph 33.4 mph N/A   Scattered Clouds
5:55 PM 65.8 °F - 30.9 °F 27% 29.94 in 10.0 mi West 23.0 mph 28.8 mph N/A   Clear
6:15 PM 64.6 °F - 29.3 °F 27% 29.94 in 10.0 mi West 21.9 mph 28.8 mph N/A   Clear
6:35 PM 62.8 °F - 30.7 °F 30% 29.94 in 10.0 mi West 16.1 mph - N/A   Clear
6:55 PM 61.9 °F - 30.2 °F 30% 29.95 in 10.0 mi West 13.8 mph - N/A   Clear
7:15 PM 60.8 °F - 30.9 °F 32% 29.96 in 10.0 mi West 9.2 mph - N/A   Clear
7:35 PM 58.6 °F - 30.9 °F 35% 29.96 in 10.0 mi West 9.2 mph - N/A   Clear
7:55 PM 56.7 °F - 31.5 °F 38% 29.97 in 10.0 mi WNW 10.4 mph - N/A   Clear
8:15 PM 55.9 °F - 32.0 °F 40% 29.97 in 10.0 mi WNW 10.4 mph - N/A   Clear
8:35 PM 55.0 °F - 32.0 °F 42% 29.98 in 10.0 mi WNW 9.2 mph - N/A   Clear
8:55 PM 55.9 °F - 32.0 °F 40% 29.98 in 10.0 mi WNW 12.7 mph - N/A   Clear
9:15 PM 54.0 °F - 32.0 °F 43% 29.99 in 10.0 mi WNW 9.2 mph - N/A   Clear
9:35 PM 49.3 °F - 32.5 °F 53% 29.99 in 10.0 mi NNW 5.8 mph - N/A   Clear
9:55 PM 48.0 °F - 32.9 °F 56% 30.00 in 10.0 mi NNW 9.2 mph - N/A   Clear
10:15 PM 46.6 °F - 32.2 °F 57% 30.01 in 10.0 mi North 8.1 mph - N/A   Clear
10:35 PM 48.6 °F - 32.7 °F 54% 30.01 in 10.0 mi North 9.2 mph - N/A   Clear
10:55 PM 46.2 °F 42.2 °F 32.9 °F 60% 30.01 in 10.0 mi NNW 8.1 mph - N/A   Clear
11:15 PM 46.2 °F 42.7 °F 32.7 °F 59% 30.01 in 10.0 mi NNW 6.9 mph - N/A   Clear
11:35 PM 44.8 °F 40.4 °F 32.9 °F 63% 30.02 in 10.0 mi NNW 8.1 mph - N/A   Clear
11:55 PM 45.9 °F 42.3 °F 33.3 °F 61% 30.02 in 10.0 mi North 6.9 mph - N/A   Clear